IBE611 LEMD-LEZL

Flight info

Callsign IBE611
Flight time 0h 42m
Altitude 31000
Route VTB N10 HIJ
Aircraft A321/M-SDE3FGHIRWY/LB1

Departure

Time 2026-05-06 18:56
Airport Adolfo Suárez Madrid–Barajas Airport (LEMD)

Arrival

Time 2026-05-06 19:38
Airport Seville Airport (LEZL)
Time Latitude Longitude Altitude Speed Heading
2026-05-06 18:36 40.48796 -3.59169 2022 ft 0 kts 89°
2026-05-06 18:44 40.48796 -3.59173 2022 ft 3 kts 89°
2026-05-06 18:44 40.48795 -3.59208 2028 ft 4 kts 89°
2026-05-06 18:44 40.48795 -3.59236 2031 ft 4 kts 102°
2026-05-06 18:45 40.48806 -3.59262 2028 ft 4 kts 162°
2026-05-06 18:45 40.48830 -3.59265 2026 ft 3 kts 180°
2026-05-06 18:45 40.48835 -3.59265 2025 ft 0 kts 180°
2026-05-06 18:47 40.48832 -3.59265 2025 ft 2 kts 180°
2026-05-06 18:48 40.48798 -3.59265 2027 ft 8 kts 179°
2026-05-06 18:48 40.48733 -3.59258 2022 ft 8 kts 163°
2026-05-06 18:48 40.48686 -3.59243 2032 ft 7 kts 166°
2026-05-06 18:48 40.48627 -3.59224 2022 ft 9 kts 167°
2026-05-06 18:49 40.48567 -3.59208 2024 ft 9 kts 160°
2026-05-06 18:49 40.48548 -3.59136 2030 ft 10 kts 90°
2026-05-06 18:49 40.48548 -3.59034 2030 ft 12 kts 90°
2026-05-06 18:49 40.48548 -3.58941 2030 ft 9 kts 89°
2026-05-06 18:50 40.48549 -3.58862 2025 ft 8 kts 90°
2026-05-06 18:50 40.48573 -3.58811 2027 ft 7 kts 22°
2026-05-06 18:50 40.48635 -3.58810 2027 ft 9 kts
2026-05-06 18:50 40.48698 -3.58809 2032 ft 10 kts 359°
2026-05-06 18:51 40.48756 -3.58767 2025 ft 12 kts 72°
2026-05-06 18:51 40.48759 -3.58639 2022 ft 16 kts 90°
2026-05-06 18:51 40.48759 -3.58504 2019 ft 15 kts 89°
2026-05-06 18:51 40.48760 -3.58355 2014 ft 17 kts 90°
2026-05-06 18:52 40.48760 -3.58197 2008 ft 17 kts 90°
2026-05-06 18:52 40.48791 -3.58057 2003 ft 16 kts 26°
2026-05-06 18:52 40.48906 -3.58050 2003 ft 18 kts 360°
2026-05-06 18:52 40.49024 -3.58052 2003 ft 16 kts 359°
2026-05-06 18:53 40.49120 -3.58053 2003 ft 12 kts 359°
2026-05-06 18:53 40.49192 -3.58053 2003 ft 9 kts 360°
2026-05-06 18:53 40.49235 -3.58024 2001 ft 7 kts 56°
2026-05-06 18:53 40.49242 -3.57961 2000 ft 8 kts 89°
2026-05-06 18:54 40.49243 -3.57882 1997 ft 10 kts 89°
2026-05-06 18:54 40.49243 -3.57775 1993 ft 13 kts 90°
2026-05-06 18:54 40.49247 -3.57636 1988 ft 17 kts 82°
2026-05-06 18:54 40.49293 -3.57493 1985 ft 18 kts 49°
2026-05-06 18:55 40.49417 -3.57452 1983 ft 24 kts
2026-05-06 18:55 40.49770 -3.57454 1988 ft 84 kts 359°
2026-05-06 18:55 40.50562 -3.57462 1993 ft 141 kts 359°
2026-05-06 18:55 40.51695 -3.57475 2012 ft 182 kts 359°
2026-05-06 18:56 40.52947 -3.57501 2672 ft 177 kts 359°
2026-05-06 18:56 40.54178 -3.57526 3363 ft 177 kts 359°
2026-05-06 18:56 40.55401 -3.57705 4010 ft 179 kts 340°
2026-05-06 18:56 40.56425 -3.58640 4591 ft 183 kts 308°
2026-05-06 18:57 40.57035 -3.60093 5140 ft 186 kts 296°
2026-05-06 18:57 40.57892 -3.61422 5496 ft 201 kts 320°
2026-05-06 18:57 40.59011 -3.62678 5689 ft 222 kts 320°
2026-05-06 18:57 40.60256 -3.64013 5935 ft 240 kts 321°
2026-05-06 18:58 40.61588 -3.65410 6490 ft 247 kts 321°
2026-05-06 18:58 40.62936 -3.66822 7259 ft 250 kts 321°
2026-05-06 18:58 40.64267 -3.68311 7992 ft 253 kts 310°
2026-05-06 18:58 40.65044 -3.70355 8724 ft 253 kts 277°
2026-05-06 18:59 40.64872 -3.72629 9464 ft 252 kts 245°
2026-05-06 18:59 40.63914 -3.74558 10174 ft 253 kts 230°
2026-05-06 18:59 40.62602 -3.76172 10607 ft 269 kts 210°
2026-05-06 18:59 40.60773 -3.77022 10814 ft 292 kts 192°
2026-05-06 19:00 40.58748 -3.77795 10973 ft 315 kts 199°
2026-05-06 19:00 40.56615 -3.78825 11122 ft 337 kts 200°
2026-05-06 19:00 40.54379 -3.79919 11572 ft 347 kts 200°
2026-05-06 19:00 40.52873 -3.80658 11999 ft 350 kts 200°
2026-05-06 19:01 40.49826 -3.82148 12918 ft 354 kts 200°
2026-05-06 19:01 40.47503 -3.83272 13589 ft 358 kts 200°
2026-05-06 19:01 40.45156 -3.84403 14204 ft 361 kts 200°
2026-05-06 19:01 40.42789 -3.85546 14807 ft 363 kts 201°
2026-05-06 19:02 40.40412 -3.86696 15381 ft 366 kts 201°
2026-05-06 19:02 40.38013 -3.87851 15980 ft 367 kts 201°
2026-05-06 19:02 40.35604 -3.89012 16576 ft 370 kts 202°
2026-05-06 19:02 40.33182 -3.90183 17146 ft 372 kts 202°
2026-05-06 19:03 40.30739 -3.91361 17705 ft 375 kts 202°
2026-05-06 19:03 40.28283 -3.92542 18234 ft 378 kts 202°
2026-05-06 19:03 40.25808 -3.93731 18678 ft 380 kts 202°
2026-05-06 19:03 40.23319 -3.94923 19106 ft 382 kts 202°
2026-05-06 19:04 40.20812 -3.96123 19530 ft 384 kts 202°
2026-05-06 19:04 40.18295 -3.97327 19945 ft 387 kts 202°
2026-05-06 19:04 40.15759 -3.98543 20378 ft 388 kts 202°
2026-05-06 19:04 40.13214 -3.99764 20802 ft 391 kts 202°
2026-05-06 19:05 40.10656 -4.00990 21234 ft 393 kts 202°
2026-05-06 19:05 40.08080 -4.02222 21669 ft 395 kts 202°
2026-05-06 19:05 40.05489 -4.03456 22110 ft 398 kts 202°
2026-05-06 19:05 40.02877 -4.04699 22544 ft 400 kts 202°
2026-05-06 19:06 40.00254 -4.05947 22974 ft 403 kts 202°
2026-05-06 19:06 39.97647 -4.07186 23413 ft 405 kts 202°
2026-05-06 19:06 39.94991 -4.08448 23780 ft 407 kts 202°
2026-05-06 19:06 39.92324 -4.09715 24202 ft 408 kts 202°
2026-05-06 19:07 39.89652 -4.10982 24590 ft 409 kts 202°
2026-05-06 19:07 39.87874 -4.11826 24833 ft 411 kts 202°
2026-05-06 19:07 39.84271 -4.13534 25313 ft 413 kts 202°
2026-05-06 19:07 39.81563 -4.14816 25672 ft 415 kts 202°
2026-05-06 19:08 39.78843 -4.16100 26030 ft 417 kts 202°
2026-05-06 19:08 39.76114 -4.17386 26387 ft 418 kts 202°
2026-05-06 19:08 39.73368 -4.18680 26738 ft 420 kts 202°
2026-05-06 19:08 39.70617 -4.19979 27101 ft 421 kts 202°
2026-05-06 19:09 39.67859 -4.21283 27467 ft 423 kts 202°
2026-05-06 19:09 39.65089 -4.22587 27814 ft 424 kts 202°
2026-05-06 19:09 39.62301 -4.23892 28159 ft 426 kts 202°
2026-05-06 19:09 39.59507 -4.25197 28454 ft 428 kts 202°
2026-05-06 19:10 39.56700 -4.26508 28746 ft 430 kts 202°
2026-05-06 19:10 39.53883 -4.27827 29020 ft 431 kts 202°
2026-05-06 19:10 39.51060 -4.29147 29277 ft 433 kts 202°
2026-05-06 19:10 39.48226 -4.30472 29553 ft 433 kts 203°
2026-05-06 19:11 39.45395 -4.31793 29920 ft 431 kts 203°
2026-05-06 19:11 39.42577 -4.33105 30229 ft 430 kts 203°
2026-05-06 19:11 39.39800 -4.34393 30506 ft 429 kts 203°
2026-05-06 19:11 39.36987 -4.35698 30777 ft 429 kts 203°
2026-05-06 19:12 39.34180 -4.37002 30874 ft 426 kts 203°
2026-05-06 19:12 39.28701 -4.39551 30888 ft 415 kts 203°
2026-05-06 19:13 39.23282 -4.42072 30889 ft 413 kts 203°
2026-05-06 19:13 39.17873 -4.44578 30887 ft 413 kts 203°
2026-05-06 19:14 39.12460 -4.47076 30883 ft 413 kts 203°
2026-05-06 19:14 39.07048 -4.49570 30884 ft 413 kts 203°
2026-05-06 19:15 39.01633 -4.52064 30863 ft 413 kts 203°
2026-05-06 19:15 38.96238 -4.54605 30879 ft 411 kts 207°
2026-05-06 19:16 38.91533 -4.58594 30893 ft 404 kts 225°
2026-05-06 19:16 38.87546 -4.63678 30873 ft 404 kts 226°
2026-05-06 19:17 38.83573 -4.68727 30872 ft 405 kts 226°
2026-05-06 19:17 38.79562 -4.73797 30863 ft 405 kts 226°
2026-05-06 19:18 38.75546 -4.78855 30875 ft 405 kts 226°
2026-05-06 19:18 38.71536 -4.83918 30856 ft 405 kts 226°
2026-05-06 19:18 38.69532 -4.86447 30614 ft 404 kts 226°
2026-05-06 19:19 38.67531 -4.88975 30374 ft 404 kts 226°
2026-05-06 19:19 38.65534 -4.91496 30123 ft 403 kts 226°
2026-05-06 19:19 38.63537 -4.94010 29814 ft 401 kts 226°
2026-05-06 19:19 38.61564 -4.96490 29248 ft 395 kts 226°
2026-05-06 19:20 38.60273 -4.98111 28866 ft 391 kts 226°
2026-05-06 19:20 38.58344 -5.00532 28297 ft 385 kts 226°
2026-05-06 19:20 38.56439 -5.02924 27727 ft 386 kts 225°
2026-05-06 19:20 38.54512 -5.05339 27134 ft 388 kts 225°
2026-05-06 19:21 38.52547 -5.07675 26566 ft 384 kts 220°
2026-05-06 19:21 38.50356 -5.09605 25951 ft 383 kts 211°
2026-05-06 19:21 38.47955 -5.11050 25347 ft 382 kts 202°
2026-05-06 19:21 38.45428 -5.12075 24756 ft 380 kts 199°
2026-05-06 19:22 38.42911 -5.13054 24171 ft 377 kts 199°
2026-05-06 19:22 38.40414 -5.14032 23589 ft 374 kts 199°
2026-05-06 19:22 38.37938 -5.15005 22961 ft 370 kts 199°
2026-05-06 19:22 38.35484 -5.15969 22411 ft 368 kts 199°
2026-05-06 19:23 38.33045 -5.16926 21886 ft 366 kts 199°
2026-05-06 19:23 38.30612 -5.17879 21387 ft 364 kts 199°
2026-05-06 19:23 38.28203 -5.18823 20893 ft 362 kts 199°
2026-05-06 19:23 38.25833 -5.19751 20423 ft 360 kts 199°
2026-05-06 19:24 38.23445 -5.20683 19964 ft 358 kts 199°
2026-05-06 19:24 38.21066 -5.21609 19510 ft 356 kts 199°
2026-05-06 19:24 38.18706 -5.22528 19067 ft 354 kts 199°
2026-05-06 19:24 38.16351 -5.23444 18630 ft 353 kts 199°
2026-05-06 19:25 38.14004 -5.24353 18180 ft 351 kts 198°
2026-05-06 19:25 38.11673 -5.25255 17691 ft 349 kts 198°
2026-05-06 19:25 38.09284 -5.26182 17226 ft 374 kts 198°
2026-05-06 19:25 38.06745 -5.27169 16734 ft 387 kts 198°
2026-05-06 19:26 38.04163 -5.28171 16207 ft 387 kts 198°
2026-05-06 19:26 38.01594 -5.29168 15694 ft 385 kts 198°
2026-05-06 19:26 37.99038 -5.30160 15159 ft 383 kts 197°
2026-05-06 19:26 37.96501 -5.31144 14632 ft 380 kts 197°
2026-05-06 19:27 37.93977 -5.32117 14078 ft 377 kts 197°
2026-05-06 19:27 37.91471 -5.33083 13541 ft 375 kts 197°
2026-05-06 19:27 37.88989 -5.34043 12971 ft 372 kts 197°
2026-05-06 19:27 37.86517 -5.35002 12418 ft 371 kts 197°
2026-05-06 19:28 37.84051 -5.35955 11874 ft 370 kts 197°
2026-05-06 19:28 37.81590 -5.36902 11298 ft 369 kts 197°
2026-05-06 19:28 37.79175 -5.37830 10756 ft 367 kts 197°
2026-05-06 19:28 37.76819 -5.39064 10520 ft 368 kts 208°
2026-05-06 19:29 37.74763 -5.40915 10359 ft 354 kts 221°
2026-05-06 19:29 37.73014 -5.42879 10109 ft 320 kts 220°
2026-05-06 19:29 37.71421 -5.44673 9874 ft 300 kts 220°
2026-05-06 19:29 37.69877 -5.46406 9509 ft 295 kts 220°
2026-05-06 19:30 37.68351 -5.48117 9113 ft 292 kts 221°
2026-05-06 19:30 37.66844 -5.49811 8728 ft 289 kts 221°
2026-05-06 19:30 37.65232 -5.51287 8344 ft 286 kts 207°
2026-05-06 19:30 37.63395 -5.52198 7964 ft 283 kts 195°
2026-05-06 19:31 37.61508 -5.52891 7590 ft 282 kts 195°
2026-05-06 19:31 37.59636 -5.53588 7214 ft 280 kts 196°
2026-05-06 19:31 37.55913 -5.54976 6486 ft 278 kts 194°
2026-05-06 19:32 37.54059 -5.55662 6118 ft 277 kts 194°
2026-05-06 19:32 37.52232 -5.56339 5740 ft 276 kts 194°
2026-05-06 19:32 37.50398 -5.57018 5362 ft 274 kts 195°
2026-05-06 19:32 37.48573 -5.57694 4987 ft 272 kts 195°
2026-05-06 19:33 37.46767 -5.58368 4605 ft 270 kts 196°
2026-05-06 19:33 37.44975 -5.59036 4234 ft 267 kts 197°
2026-05-06 19:33 37.43285 -5.59930 3856 ft 263 kts 217°
2026-05-06 19:33 37.42146 -5.61664 3489 ft 257 kts 246°
2026-05-06 19:34 37.41833 -5.63834 3196 ft 250 kts 269°
2026-05-06 19:34 37.41835 -5.65981 2991 ft 240 kts 270°
2026-05-06 19:34 37.41839 -5.68015 2788 ft 221 kts 268°
2026-05-06 19:34 37.41838 -5.69837 2600 ft 198 kts 269°
2026-05-06 19:35 37.41835 -5.71495 2522 ft 186 kts 267°
2026-05-06 19:35 37.41832 -5.73094 2321 ft 180 kts 268°
2026-05-06 19:35 37.41829 -5.74653 2091 ft 176 kts 269°
2026-05-06 19:35 37.41826 -5.76157 1863 ft 168 kts 269°
2026-05-06 19:36 37.41824 -5.77564 1672 ft 152 kts 266°
2026-05-06 19:36 37.41822 -5.78822 1464 ft 137 kts 266°
2026-05-06 19:36 37.41818 -5.80007 1280 ft 134 kts 267°
2026-05-06 19:36 37.41815 -5.81174 1102 ft 133 kts 267°
2026-05-06 19:37 37.41813 -5.82334 930 ft 132 kts 266°
2026-05-06 19:37 37.41809 -5.83489 758 ft 131 kts 267°
2026-05-06 19:37 37.41807 -5.84643 569 ft 137 kts 266°
2026-05-06 19:37 37.41803 -5.85805 347 ft 132 kts 266°
2026-05-06 19:38 37.41799 -5.86983 223 ft 134 kts 268°
2026-05-06 19:38 37.41798 -5.88139 116 ft 127 kts 267°
2026-05-06 19:38 37.41795 -5.89106 101 ft 84 kts 270°
2026-05-06 19:38 37.41794 -5.89610 98 ft 30 kts 269°
2026-05-06 19:39 37.41829 -5.89785 99 ft 19 kts 317°
2026-05-06 19:39 37.41928 -5.89844 98 ft 12 kts 338°
2026-05-06 19:39 37.42003 -5.89883 97 ft 12 kts 338°
2026-05-06 19:39 37.42083 -5.89921 97 ft 9 kts 342°
2026-05-06 19:40 37.42139 -5.89913 94 ft 8 kts 37°
2026-05-06 19:40 37.42180 -5.89900 94 ft 6 kts 331°
2026-05-06 19:40 37.42205 -5.89936 94 ft 5 kts 313°
2026-05-06 19:40 37.42214 -5.89948 94 ft 0 kts 314°